Preview of NWS' New Version of Forecast
This preview is not operational and should not be used for support decisions.

Regional Weather Roundup (RWR)

Issued by National Weather Service (NWS)

                            
000
ASUS43 KDTX 190810
RWRMI 
MICHIGAN HOURLY REGIONAL WEATHER ROUNDUP
NATIONAL WEATHER SERVICE DETROIT/PONTIAC MI
400 AM EDT FRI APR 19 2019

NOTE: "FAIR" INDICATES FEW OR NO CLOUDS BELOW 12,000 FEET WITH NO
SIGNIFICANT WEATHER AND/OR OBSTRUCTION TO VISIBILITY.

MIZ047>049-052>055-059>063-066>070-074>076-081>083-190900-
SOUTHEAST LOWER MICHIGAN
  
CITY           SKY/WX    TMP DP  RH WIND       PRES   REMARKS
ADRIAN         LGT RAIN  42  39  89 N10       29.62F                  
ALMA           CLOUDY    42  38  86 N8        29.70R                  
ANN ARBOR      LGT RAIN  42  40  92 N10       29.60F FOG              
BAD AXE        LGT SNOW  38  37  98 N14       29.64F VSB 3/4 WCI  29  
CARO           LGT RAIN  40  39  96 N12       29.67R WCI  33          
DETROIT CITY   LGT RAIN  45  42  89 NW9       29.63R                  
DETROIT        LGT RAIN  44  40  85 N10       29.61F FOG              
FLINT          LGT RAIN  42  39  89 N8        29.67R                  
GROSSE ILE     MIX PCPN  45  43  95 N8        29.60F                  
HILLSDALE      LGT RAIN  40  37  89 N10G17    29.63R WCI  34          
HOWELL         LGT RAIN  41  38  91 N8        29.63F                  

CITY           SKY/WX    TMP DP  RH WIND       PRES   REMARKS
JACKSON        LGT RAIN  41  39  93 NW7       29.64F                  
LAMBERTVILLE   RAIN      43  43  99 N10       29.60F                  
LANSING        CLOUDY    41  38  89 N10       29.67S                  
LAPEER         RAIN      42  41  97 N5        29.66R                  
MASON          LGT RAIN  41  38  91 N8        29.64F                  
MONROE         RAIN      45  45  99 N6        29.61F                  
MT. CLEMENS    LGT RAIN  45  45 100 N10       29.61S                  
PONTIAC        LGT RAIN  42  41  96 N10       29.61F                  
PORT HOPE        N/A     37  37 100 N12G18    29.64F WCI  29          
PORT HURON     LGT RAIN  43  39  87 N5        29.63S                  
TRI CITIES     CLOUDY    42  39  89 N12       29.69R                  
MIDLAND        CLOUDY    42  38  86 N6        29.68R                  
TROY           LGT RAIN  44  40  86 N7        29.62F                  
SAGINAW HB     CLOUDY    43  41  93 N9        29.67R FOG              
$$
MIZ043>046-050>051-056>058-064>065-071>073-077>080-190900-
SOUTHWEST LOWER MICHIGAN
  
CITY           SKY/WX    TMP DP  RH WIND       PRES   REMARKS
BATTLE CREEK   CLOUDY    41  36  82 N13       29.67S                  
BENTON HARBOR  CLOUDY    39  36  89 VRB7      29.71F WCI  34          
BIG RAPIDS     CLOUDY    39  37  91 N7        29.72R WCI  34          
COLDWATER      LGT RAIN  41  40  97 N7        29.66R                  
FREMONT        CLOUDY    40  36  86 N12       29.73R WCI  33          
HOLLAND        CLOUDY    41  35  79 N6        29.71F                  
GRAND RAPIDS   CLOUDY    40  35  83 N9        29.70R WCI  34          
IONIA          CLOUDY    40  36  84 N8        29.68R WCI  35          
KALAMAZOO      CLOUDY    41  36  82 N13       29.68S                  
LUDINGTON      CLOUDY    39  37  93 N10       29.75S WCI  32          
MARSHALL       LGT RAIN  40  40 100 N5        29.66S                  
MOUNT PLEASANT CLOUDY    40  38  93 N5        29.70R                  
MUSKEGON       CLOUDY    42  34  73 N12       29.73R                  
SOUTH HAVEN    CLOUDY    39  37  91 N7        29.71F WCI  34          
$$
MIZ016>042-190900-
NORTHERN LOWER MICHIGAN
  
CITY           SKY/WX    TMP DP  RH WIND       PRES   REMARKS
ALPENA         CLOUDY    38  32  79 N13       29.73R WCI  30          
BEAVER ISLAND  FAIR      37  33  89 N10G18    29.82R WCI  29          
BELLAIRE       CLOUDY    39  37  91 N7        29.77R WCI  34          
CADILLAC       CLOUDY    38  37  94 N9        29.71R FOG     WCI  31  
CHARLEVOIX     CLOUDY    36  35  96 N7        29.82R WCI  30          
FRANKFORT      CLOUDY    42  36  78 N7        29.79R                  
GRAYLING       CLOUDY    37  36  98 N9        29.72S FOG     WCI  30  
HARBOR SPRINGS CLOUDY    38  37  93 N8        29.78R WCI  33          
HOUGHTON LAKE  CLOUDY    37  34  89 N9G20     29.71S WCI  30          
MANISTEE       LGT RAIN  39  37  92 N9        29.78R WCI  33          
OSCODA         MIX PCPN  37  37 100 N12G18    29.69S WCI  30          
PELLSTON       CLOUDY    39  36  89 N10       29.79R WCI  32          
ROGERS CITY    CLOUDY    36  35  96 N8        29.76R WCI  30          
TRAVERSE CITY  CLOUDY    39  36  89 N12G22    29.76S WCI  32          
$$
MIZ007>008-015-190900-
EASTERN UPPER MICHIGAN
  
CITY           SKY/WX    TMP DP  RH WIND       PRES   REMARKS
KINROSS        CLOUDY    37  34  89 N12       29.79R WCI  29          
MACKINAC ISLAN CLOUDY    36  36 100 N10G18    29.78R WCI  28          
NEWBERRY       FAIR      35  33  92 N8        29.83R WCI  28          
S. S. MARIE    CLOUDY    40  33  76 N7        29.79R                  
MUNISING         N/A     36  31  82 N8        29.87R WCI  30          
$$
MIZ004>006-011>014-085-190900-
CENTRAL UPPER MICHIGAN
  
CITY           SKY/WX    TMP DP  RH WIND       PRES   REMARKS
MANISTIQUE     FAIR      38  32  80 N9        29.84R WCI  32          
ESCANABA       FAIR      38  32  79 N8        29.87R WCI  32          
MENOMINEE      FAIR      39  33  79 N9        29.88R WCI  33          
SAWYER-GWINN   FAIR      36  32  86 N10       29.87R WCI  28          
$$
MIZ001>003-009>011-084-190900-
WESTERN UPPER MICHIGAN
  
CITY           SKY/WX    TMP DP  RH WIND       PRES   REMARKS
IRON MOUNTAIN  FAIR      33  29  85 N5        29.88S WCI  29          
HOUGHTON       FAIR      33  30  88 NW12      29.92R WCI  24          
COPPER HARBOR    N/A     37  32  82 N7        29.91S WCI  32          
IRONWOOD       FAIR      27  27 100 CALM      29.95S FOG              
$$

ABBREVIATIONS USED IN REMARKS
   TC - TEMPERATURE IN CELSIUS
  WCI - WIND CHILL INDEX
   HX - HEAT INDEX
  VSB - VISIBILITY